星链-31181 (STARLINK-31181 )

导读

STARLINK-31181是美国SpaceX公司星链(Starlink)星座中的一颗卫星,于2024年1月7日发射入轨。星链项目旨在通过低地球轨道大规模卫星星座,为全球提供高速低延迟宽带互联网服务,尤其聚焦偏远地区覆盖与特殊场景通信需求。 作为星链快速扩张阶段的产物,该卫星延续了新一代技术设计,融入推进系统、通信能力升级,助力星链网络容量与覆盖范围持续拓展,支撑全球用户的高速接入服务,目前星链已成为全球规模最大的低轨通信卫星星座。

Basic Information
目录编号:
58746
目录名称:
STARLINK-31181
国际标识:
2024-005U
轨道中心:
EARTH
卫星名称:
星链-31181
卫星全名:
星链-31181 (STARLINK-31181 )
卫星状态:
在轨 (已飞行971 天)
发射日期:
2024-01-07 UTC
国别 :
美国 (US)
星等 :
--
Orbit Information
数据来源 国际轨道数据 AOE轨道数据
星历时间 2026-09-04T09:46:52+0800
15小时前
查看轨道信息
2026-09-01T23:00:00+0800
3天前
查看轨道信息
半长轴 6861.133km 6861.188km
偏心率 0.0000646 0.0002595
轨道倾角 43.001° 43.001°
近地点辐角 284.790° 258.459°
升交点赤经 140.100° 153.935°
平近点角 75.288° 296.769°
近地点 482.552km 481.27km
远地点 483.44km 484.832km
周期 94.266分钟 94.267分钟
每日圈数 15.275978 15.275794
Detailed Information
固有亮度:
5
最大亮度:
0.3
卫星平台:
Starlink v2.0 mini
覆盖范围:
全球
运营商:
太空探索技术公司
运营商所在国:
美国
制造商(研发单位):
太空探索技术公司
制造商所在国:
美国
使用方式:
暂无
Satellite Introduction
星链(Starlink)计划是由太空探索技术公司(SpaceX)提出的一个巨型低轨卫星互联网星座项目,计划在2019年至2024年间在太空搭建由约1.2万颗卫星组成的“星链”网络,其中1584颗将部署在地球上空550千米处的近地轨道,并从2020年开始工作。该卫星仍在工作。
2D Orbit Map
3D Orbit Map
Orbit Altitude Analysis Chart
Orbit Inclination Analysis Chart
Orbit Comprehensive Analysis Chart
View Comprehensive Chart
Conjunction Data List
Event ID Objects TCA Miss Dist (km) Collision Risk Probability Collision Risk Index (CRI) Action
CDM_260905-021005-874606-387121
2026-09-05T
02:10:06+0000
0.802 km
远距离
2.165933E-5 中风险 0.62
CDM_260905-135905-874606-443121
2026-09-05T
13:59:51+0000
1.423 km
极远距离
7.056716E-6 低风险 0.52
CDM_260905-064405-322805-874621
2026-09-05T
06:44:41+0000
2.706 km
极远距离
1.509855E-6 低风险 0.39
CDM_260905-122505-874606-443121
2026-09-05T
12:25:38+0000
2.627 km
极远距离
1.451291E-6 低风险 0.38
CDM_260905-153405-874606-443121
2026-09-05T
15:34:03+0000
2.846 km
极远距离
1.290448E-6 低风险 0.37
CDM_260907-030205-557205-874621
2026-09-07T
03:02:41+0000
2.688 km
极远距离
8.495493E-7 极低风险 0.34